Beaufort, NC

5:07 PM EST on December 05, 2019 (GMT -0500)
Smith

Weather History for KMRH - October, 2019

Change the Weather History Date:

Sunday, October 20, 2019

  Actual Average Record
Temperature  
Mean Temperature 70 °F -  
Max Temperature 79 °F 74 °F 85 °F (1979)
Min Temperature 62 °F 52 °F 29 °F (1981)
Cooling Degree Days 6    
Growing Degree Days 20 (Base 50)    
Moisture  
Dew Point 68 °F    
Average Humidity 92    
Maximum Humidity 100    
Minimum Humidity 79    
Precipitation  
Precipitation 1.40 in - - ()
Sea Level Pressure  
Sea Level Pressure 29.77 in    
Wind  
Wind Speed 15 mph (SSE)    
Max Wind Speed 24 mph    
Max Gust Speed 40 mph    
Visibility 6 miles    
Events Rain    
Averages and records for this station are not official NWS values.
T = Trace of Precipitation, MM = Missing Value Source: NWS Daily Summary

Daily Weather History Graph

Daily Weather History Graph

Search for Another Location

Airport or City:

Astronomy

Oct. 20, 2019 Rise Set
Actual Time 7:16 AM EDT 6:26 PM EDT
Civil Twilight 6:50 AM EDT 6:51 PM EDT
Nautical Twilight 6:21 AM EDT 7:20 PM EDT
Astronomical Twilight 5:52 AM EDT 7:50 PM EDT
Moon 11:42 PM EDT (10/20) 1:32 PM EDT (10/20)
Length of Visible Light 12h 00m
Length of Day
11h 09m
Waning Gibbous, 59% of the Moon is Illuminated
Oct 20
Waning Gibbous
Oct 21
Last Quarter
Oct 27
New
Nov 4
First Quarter
Nov 12
Full

Hourly Weather History & Observations

Time (EDT) Temp. Dew Point Humidity Pressure Visibility Wind Dir Wind Speed Gust Speed Precip Events Conditions
12:27 AM 70.0 °F 64.0 °F 81% 29.93 in 10.0 mi ESE 10.4 mph - N/A   Overcast
12:54 AM 69.8 °F 64.4 °F 83% 29.91 in 10.0 mi SE 9.2 mph - N/A   Overcast
12:58 AM 71.1 °F 64.9 °F 81% 29.92 in 10.0 mi SE 11.5 mph - N/A   Overcast
1:58 AM 72.0 °F 66.0 °F 81% 29.90 in 10.0 mi SE 12.7 mph 21.9 mph N/A   Overcast
2:48 AM 70.0 °F 66.9 °F 90% 29.87 in 2.5 mi SE 11.5 mph 19.6 mph 0.09 in Rain Heavy Rain
2:56 AM 69.8 °F 68.0 °F 94% 29.87 in 5.0 mi SE 10.4 mph 20.7 mph 0.09 in Rain Light Rain
2:58 AM 70.0 °F 68.0 °F 93% 29.87 in 6.0 mi SE 12.7 mph 20.7 mph 0.09 in Rain Light Rain
3:08 AM 70.0 °F 68.0 °F 93% 29.86 in 8.0 mi SE 11.5 mph 20.7 mph 0.00 in Rain Light Rain
3:16 AM 70.0 °F 68.0 °F 93% 29.86 in 5.0 mi ESE 12.7 mph 20.7 mph 0.02 in Rain Rain
3:58 AM 70.0 °F 68.0 °F 93% 29.83 in 7.0 mi SE 11.5 mph - 0.07 in Rain Rain
4:46 AM 71.1 °F 69.1 °F 93% 29.81 in 2.5 mi SE 17.3 mph 24.2 mph 0.23 in Rain Heavy Rain
4:58 AM 70.0 °F 69.1 °F 97% 29.81 in 3.0 mi SE 15.0 mph - 0.29 in Rain Heavy Rain
5:08 AM 70.0 °F 69.1 °F 97% 29.80 in 4.0 mi ESE 15.0 mph 20.7 mph 0.02 in Rain Rain
5:40 AM 71.1 °F 70.0 °F 96% 29.79 in 4.0 mi SE 15.0 mph 32.2 mph 0.08 in Rain Rain
5:58 AM 71.1 °F 70.0 °F 96% 29.79 in 5.0 mi SE 13.8 mph 24.2 mph 0.12 in Rain Rain
6:29 AM 71.1 °F 70.0 °F 96% 29.78 in 2.0 mi SE 15.0 mph 29.9 mph 0.17 in Rain Heavy Rain
6:47 AM 71.1 °F 70.0 °F 96% 29.76 in 3.0 mi SE 20.7 mph 31.1 mph 0.25 in Rain Heavy Rain
6:58 AM 71.1 °F 70.0 °F 96% 29.75 in 4.0 mi SE 20.7 mph 34.5 mph 0.27 in Rain Rain
7:51 AM 72.0 °F 71.1 °F 97% 29.73 in 3.0 mi SE 24.2 mph 39.1 mph 0.14 in Rain Heavy Rain
7:53 AM 71.6 °F 71.6 °F 100% 29.73 in 3.0 mi SSE 20.7 mph 39.1 mph 0.15 in Rain Heavy Rain
7:55 AM 71.6 °F 71.6 °F 100% 29.73 in 2.5 mi SE 20.7 mph 39.1 mph 0.16 in Rain Heavy Rain
7:58 AM 72.0 °F 71.1 °F 97% 29.74 in 2.5 mi SE 20.7 mph 36.8 mph 0.18 in Rain Heavy Rain
8:04 AM 71.1 °F 70.0 °F 96% 29.73 in 2.5 mi SSE 24.2 mph 36.8 mph 0.03 in Rain Heavy Rain
8:12 AM 70.0 °F 70.0 °F 100% 29.73 in 2.5 mi SE 21.9 mph 36.8 mph 0.09 in Rain Heavy Rain
8:42 AM 70.0 °F 70.0 °F 100% 29.74 in 3.0 mi SSE 21.9 mph 34.5 mph 0.21 in Rain Light Rain
8:45 AM 71.1 °F 70.0 °F 96% 29.73 in 1.5 mi SE 23.0 mph 38.0 mph 0.24 in Rain Heavy Rain
8:50 AM 71.1 °F 70.0 °F 96% 29.74 in 1.0 mi SE 19.6 mph 40.3 mph 0.27 in Rain Heavy Rain
8:58 AM 71.1 °F 71.1 °F 100% 29.74 in 1.2 mi SE 16.1 mph 29.9 mph 0.32 in Rain Heavy Rain
9:28 AM 72.0 °F 71.1 °F 97% 29.74 in 4.0 mi SE 20.7 mph 33.4 mph 0.03 in Rain Light Rain
9:33 AM 72.0 °F 71.1 °F 97% 29.73 in 6.0 mi South 10.4 mph 33.4 mph 0.03 in Rain Light Rain
9:44 AM 72.0 °F 72.0 °F 100% 29.73 in 2.5 mi SE 13.8 mph 32.2 mph 0.05 in Rain Rain
9:55 AM 73.4 °F 71.6 °F 94% 29.73 in 5.0 mi SE 17.3 mph 28.8 mph 0.05 in Rain Light Rain
9:58 AM 73.9 °F 73.0 °F 97% 29.73 in 5.0 mi SSE 13.8 mph 28.8 mph 0.05 in Rain Light Rain
10:16 AM 73.9 °F 73.0 °F 97% 29.73 in 9.0 mi South 16.1 mph - 0.01 in   Overcast
10:43 AM 75.0 °F 73.0 °F 94% 29.73 in 6.0 mi SSE 12.7 mph - 0.01 in   Overcast
10:58 AM 75.0 °F 73.9 °F 96% 29.73 in 7.0 mi South 10.4 mph - 0.01 in   Overcast
11:58 AM 78.1 °F 73.0 °F 84% 29.71 in 10.0 mi SSW 16.1 mph - N/A   Mostly Cloudy
12:58 PM 78.1 °F 73.0 °F 84% 29.69 in 10.0 mi SSW 17.3 mph - N/A   Scattered Clouds
1:58 PM 78.1 °F 72.0 °F 81% 29.68 in 10.0 mi SW 19.6 mph - N/A   Clear
2:58 PM 78.1 °F 71.1 °F 79% 29.67 in 10.0 mi SW 19.6 mph 28.8 mph N/A   Clear
3:58 PM 75.0 °F 71.1 °F 87% 29.68 in 10.0 mi SW 16.1 mph - N/A   Overcast
4:58 PM 73.0 °F 71.1 °F 93% 29.69 in 10.0 mi West 15.0 mph - 0.00 in   Overcast
5:28 PM 72.0 °F 69.1 °F 91% 29.71 in 10.0 mi West 13.8 mph - N/A   Overcast
5:37 PM 71.1 °F 68.0 °F 90% 29.71 in 10.0 mi WNW 18.4 mph 23.0 mph N/A   Overcast
5:55 PM 69.8 °F 66.2 °F 88% 29.72 in 10.0 mi WNW 17.3 mph - N/A   Overcast
5:58 PM 70.0 °F 66.0 °F 87% 29.72 in 10.0 mi WNW 17.3 mph - N/A   Overcast
6:06 PM 69.1 °F 64.9 °F 87% 29.73 in 10.0 mi WNW 19.6 mph - N/A   Overcast
6:58 PM 64.9 °F 62.1 °F 90% 29.76 in 10.0 mi WNW 23.0 mph 31.1 mph N/A   Overcast
7:58 PM 64.0 °F 60.1 °F 87% 29.80 in 10.0 mi WNW 17.3 mph - N/A   Overcast
8:58 PM 63.0 °F 59.0 °F 87% 29.82 in 10.0 mi WNW 16.1 mph - N/A   Overcast
9:11 PM 63.0 °F 59.0 °F 87% 29.82 in 10.0 mi WNW 18.4 mph - N/A   Overcast
9:58 PM 63.0 °F 59.0 °F 87% 29.85 in 10.0 mi NW 16.1 mph - N/A   Overcast
10:58 PM 63.0 °F 59.0 °F 87% 29.88 in 10.0 mi NW 17.3 mph - N/A   Overcast
11:58 PM 62.1 °F 59.0 °F 90% 29.90 in 10.0 mi NNW 12.7 mph - N/A   Overcast